User: anonymous   Login
Location: Okie-Tex Star Party
(36.8978°N, 102.9520°W)
Time: 13:55:26
(UTC-06:00)
Language:

Hamsat - Orbit

View from above orbital plane
View from above orbital plane
View from above satellite
View from above satellite

Ground track
Ground track

The orbit data is extracted from the following two-line orbital elements,

1 28650U 05017B   14356.17467449  .00006428  00000-0  72938-3 0  9379
2 28650 097.5650 351.8842 0023031 256.3858 103.4793 14.86464184521148
Epoch (UTC): 22 December 2014 04:11:31
Eccentricity: 0.0023031
inclination: 97.5650°
perigee height: 593 km
apogee height: 625 km
right ascension of ascending node: 351.8842°
argument of perigee: 256.3858°
revolutions per day: 14.86464184
mean anomaly at epoch: 103.4793°
orbit number at epoch: 52114

The dashed part of the orbit path shows where the satellite is in the earth's shadow,  

DLR